Regional Weather Roundup
Issued by NWS Little Rock, AR

Home | Current Version | Previous Version | Graphics & Text | Print | Product List | Glossary On
Versions: 1 2 3 4 5 6 7 8 9 10 11 12 13 14 15 16 17 18 19 20 21 22 23 24 25 26 27 28 29 30 31 32 33 34 35 36 37 38 39 40 41 42 43
000
ASUS44 KLZK 191812
RWRLZK

WEATHER ROUNDUP FOR ARKANSAS
NATIONAL WEATHER SERVICE LITTLE ROCK AR
100 PM CDT TUE SEP 19 2017

NOTE: "FAIR" INDICATES FEW OR NO CLOUDS BELOW 12,000 FEET WITH NO
SIGNIFICANT WEATHER AND/OR OBSTRUCTIONS TO VISIBILITY.

ARZ001-003-010-029-191900-
NORTHWEST ARKANSAS

CITY           SKY/WX    TMP DP  RH WIND       PRES   REMARKS
FAYETTEVILLE   MOSUNNY   85  71  63 S12       29.93F HX  90
6HR MIN TEMP:  59; 6HR MAX TEMP:  85;

FORT SMITH     MOSUNNY   87  71  58 VRB3      29.91F HX  93
6HR MIN TEMP:  68; 6HR MAX TEMP:  88;

HARRISON       SUNNY     88  67  49 S12       29.96F HX  91
6HR MIN TEMP:  62; 6HR MAX TEMP:  88;

BENTONVILLE    CLOUDY    84  69  60 S10       29.95F HX  88
6HR MIN TEMP:  65; 6HR MAX TEMP:  85;

ROGERS         SUNNY     85  69  58 S14       29.93F HX  89
6HR MIN TEMP:  66; 6HR MAX TEMP:  85;

SILOAM SPGS    MOSUNNY   83  70  64 S10       29.94F HX  87
6HR MIN TEMP:  63; 6HR MAX TEMP:  85;

HIGHFILL       MOSUNNY   85  70  60 S15       29.94F HX  89
6HR MIN TEMP:  63; 6HR MAX TEMP:  86;

SPRINGDALE     PTSUNNY   84  68  58 SE14G21   29.95F HX  87
$$

ARZ004-005-016-191900-
NORTH CENTRAL ARKANSAS

CITY           SKY/WX    TMP DP  RH WIND       PRES   REMARKS
BATESVILLE     SUNNY    N/A N/A N/A S7        29.95F
FLIPPIN        SUNNY     88  69  53 VRB5      29.94F HX  92
6HR MIN TEMP:  64; 6HR MAX TEMP:  89; 6HR PCP: TRACE;

MTN HOME       SUNNY     87  68  52 S5        29.94F HX  90
6HR MIN TEMP:  65; 6HR MAX TEMP:  87;

$$

ARZ040-041-191900-
WEST CENTRAL ARKANSAS

CITY           SKY/WX    TMP DP  RH WIND       PRES   REMARKS
MENA           MOSUNNY   86  77  74 SW7       29.96F HX  97
$$

ARZ009-017-025-026-028-191900-
NORTHEAST ARKANSAS

CITY           SKY/WX    TMP DP  RH WIND       PRES   REMARKS
CORNING        FAIR      88  73  62 SW3       29.94F HX  96
JONESBORO      MOSUNNY   88  76  67 SW5       29.94F HX  99
6HR MIN TEMP:  68; 6HR MAX TEMP:  88;

NEWPORT        SUNNY     89  70  53 SW14      29.94F HX  94
6HR MIN TEMP:  66; 6HR MAX TEMP:  89; 6HR PCP:  0.01;

BLYTHEVILLE    PTSUNNY   87  75  67 S6        29.95F HX  96
6HR MIN TEMP:  69; 6HR MAX TEMP:  87;

NW BLYTHEVILLE MOSUNNY   90  72  55 SW9       29.95F HX  96
$$

ARZ022-023-033-042-044-191900-
CENTRAL ARKANSAS

CITY           SKY/WX    TMP DP  RH WIND       PRES   REMARKS
LITTLE ROCK    MOSUNNY   88  73  61 S9        29.95F HX  95
6HR MIN TEMP:  69; 6HR MAX TEMP:  89;

JACKSONVILLE   MOSUNNY   89  72  57 S6        29.94F HX  96
6HR MIN TEMP:  70; 6HR MAX TEMP:  91;

CONWAY           N/A     91  70  49 S6G13     29.91F HX  97
SEARCY         SUNNY     90  74  59 SW6       29.96F HX  99
6HR MIN TEMP:  67; 6HR MAX TEMP:  90;

HOT SPRINGS    SUNNY     88  71  57 SW9       29.95F HX  94
6HR MIN TEMP:  69; 6HR MAX TEMP:  90;

RUSSELLVILLE   MOSUNNY   88  70  55 VRB3      29.92F HX  93
6HR MIN TEMP:  67; 6HR MAX TEMP:  89;

CLINTON        FAIR      88  70  55 SW8       29.95F HAZE    HX  92
$$

ARZ036-191900-
EAST ARKANSAS

CITY           SKY/WX    TMP DP  RH WIND       PRES   REMARKS
WEST MEMPHIS   SUNNY     85  74  69 W5        29.95F HX  92
6HR MIN TEMP:  68; 6HR MAX TEMP:  87; 6HR PCP: TRACE;

$$

ARZ050-053-066-070-073-191900-
SOUTHWEST ARKANSAS

CITY           SKY/WX    TMP DP  RH WIND       PRES   REMARKS
ARKADELPHIA    MOCLDY    87  75  67 S3        29.95F HX  96
6HR MIN TEMP:  66; 6HR MAX TEMP:  87;

CAMDEN         PTSUNNY   90  72  55 VRB7      29.95F HX  96
TEXARKANA      PTSUNNY   80  73  79 S9        29.97S
6HR MIN TEMP:  71; 6HR MAX TEMP:  82;

EL DORADO      MOSUNNY   86  73  65 VRB6      29.97F HX  93
6HR MIN TEMP:  71; 6HR MAX TEMP:  86;

$$

ARZ056-057-069-191900-
SOUTHEAST ARKANSAS

CITY           SKY/WX    TMP DP  RH WIND       PRES   REMARKS
PINE BLUFF     MOSUNNY   87  73  62 VRB7      29.96F HX  94
6HR MIN TEMP:  68; 6HR MAX TEMP:  87;

STUTTGART      MOSUNNY   90  71  53 SW9       29.96F HX  96
6HR MIN TEMP:  71; 6HR MAX TEMP:  90;

MONTICELLO     CLOUDY    89  74  60 SW10      29.96F HX  98
6HR MIN TEMP:  74; 6HR MAX TEMP:  88;


$$






USA.gov is the U.S. government's official web portal to all federal, state and local government web resources and services.